Location: ??
(34.9170°N, 135.5016°E)
Time: 16:13:55
(UTC+00:00)

SR - All Passes

Search period start: 27 February 2021 00:00
Search period end: 09 March 2021 00:00
Orbit: 573 x 882 km, 66.7° (Epoch: 26 February)

Date Brightness Start Highest point End Pass type
(mag) Time Alt. Az. Time Alt. Az. Time Alt. Az.
27 Feb - 10:47:30 10° SSW 10:52:26 82° WNW 10:57:54 10° NNE visible
27 Feb - 12:33:41 10° WNW 12:35:31 12° NW 12:37:24 10° NNW visible
27 Feb - 19:31:40 10° NNW 19:37:12 39° ENE 19:42:35 10° SE visible
27 Feb - 21:14:07 10° NW 21:19:07 29° WSW 21:23:57 10° SSW daylight
28 Feb - 09:58:07 10° S 10:02:48 46° ESE 10:07:56 10° NE visible
28 Feb - 11:41:13 10° W 11:45:10 22° NW 11:49:21 10° N visible
28 Feb - 18:42:36 10° N 18:47:04 21° NE 18:51:27 10° E visible
28 Feb - 20:23:46 10° NW 20:29:35 59° WSW 20:35:11 10° S visible
01 Mar - 09:09:44 10° SSE 09:13:23 21° ESE 09:17:16 10° ENE visible
01 Mar - 10:50:17 10° SW 10:55:02 42° WNW 11:00:14 10° NNE visible
01 Mar - 17:54:35 10° NNE 17:56:41 12° NE 17:58:47 10° ENE visible
01 Mar - 19:33:55 10° NNW 19:39:52 71° ENE 19:45:35 10° SE visible
01 Mar - 21:18:08 10° WNW 21:21:16 15° WSW 21:24:19 10° SW daylight
02 Mar - 10:00:12 10° SSW 10:05:10 88° WNW 10:10:40 10° NNE visible
02 Mar - 11:45:55 10° WNW 11:48:10 13° NW 11:50:30 10° NNW visible
02 Mar - 18:44:27 10° N 18:49:55 37° NE 18:55:13 10° ESE visible
02 Mar - 20:26:47 10° NW 20:31:54 31° WSW 20:36:49 10° SSW visible
03 Mar - 09:10:54 10° S 09:15:32 42° ESE 09:20:38 10° NE visible
03 Mar - 10:53:45 10° WSW 10:57:50 23° NW 11:02:12 10° N visible
03 Mar - 17:55:27 10° N 17:59:45 20° NE 18:03:58 10° E visible
03 Mar - 19:36:28 10° NNW 19:42:21 64° WSW 19:47:57 10° SSE visible
04 Mar - 08:22:38 10° SSE 08:26:09 19° ESE 08:29:52 10° ENE daylight
04 Mar - 10:02:54 10° SW 10:07:45 45° WNW 10:13:02 10° NNE visible
04 Mar - 17:07:42 10° NNE 17:09:21 11° NE 17:10:59 10° ENE visible
04 Mar - 18:46:41 10° NNW 18:52:36 66° ENE 18:58:16 10° SE visible
04 Mar - 20:30:38 10° WNW 20:34:02 16° WSW 20:37:22 10° SW visible
05 Mar - 09:12:53 10° SSW 09:17:53 86° ESE 09:23:24 10° NNE visible
05 Mar - 10:58:14 10° WNW 11:00:49 13° NW 11:03:30 10° NNW visible
05 Mar - 17:57:15 10° N 18:02:38 34° NE 18:07:50 10° ESE visible
05 Mar - 19:39:26 10° NW 19:44:39 33° WSW 19:49:40 10° S visible
06 Mar - 08:23:40 10° S 08:28:18 39° ESE 08:33:20 10° NE daylight
06 Mar - 10:06:17 10° WSW 10:10:31 25° NW 10:15:03 10° N visible
06 Mar - 17:08:18 10° N 17:12:26 19° NE 17:16:29 10° E night (unlit)
06 Mar - 18:49:12 10° NNW 18:55:06 68° WSW 19:00:43 10° SSE visible
07 Mar - 07:35:33 10° SE 07:38:54 18° ESE 07:42:27 10° ENE daylight
07 Mar - 09:15:32 10° SW 09:20:26 49° WNW 09:25:49 10° NNE visible
07 Mar - 16:21:03 10° NNE 16:22:00 10° NE 16:22:57 10° NE night (unlit)
07 Mar - 17:59:25 10° NNW 18:05:19 62° ENE 18:10:57 10° SE night (unlit)
07 Mar - 19:43:09 10° WNW 19:46:49 17° WSW 19:50:22 10° SW night (unlit)
08 Mar - 08:25:36 10° SSW 08:30:37 81° ESE 08:36:09 10° NNE daylight
08 Mar - 10:10:35 10° W 10:13:29 14° NW 10:16:28 10° NNW visible
08 Mar - 17:10:02 10° N 17:15:19 32° NE 17:20:26 10° ESE night (unlit)
08 Mar - 18:52:07 10° NW 18:57:25 35° WSW 19:02:30 10° S night (unlit)
